Location: Rounton
(54.4000°N, 1.3500°W)
Time: 02:51:37
(UTC+00:00)

Envisat - Pass Details

Date: 01 November 2021
Orbit: 764 x 766 km, 98.2° (Epoch: 28 November)

Event Time Altitude Azimuth Distance (km) Brightness Sun altitude
Rises 05:56:51 0° 13° (NNE) 3,247 6.3 -10.6°
Reaches altitude 10° 05:59:11 10° 10° (N) 2,316 5.5 -10.3°
Maximum altitude 06:04:11 59° 292° (WNW) 886 3.0 -9.6°
Drops below altitude 10° 06:09:10 10° 214° (SSW) 2,299 5.3 -8.9°
Sets 06:11:29 0° 210° (SSW) 3,221 6.1 -8.5°
